[[{"header":{"parameterUnit":"m.s-1","parameterCategory":2,"la1":30.2991,"la2":30.254,"lo1":-89.0895,"lo2":-89.0444,"dx":0.0017,"dy":0.0017,"nx":28,"ny":28,"refTime":"2023-01-23T03:00:00:Z","depth":"0","parameterNumber":2,"parameterNumberName":"U-component_of_CURRENTS"},"data":[0,0,0,0,0,0,0,0,0,0,0,0,0,0,0,0,0,0,0,0,0,0,0,0,0,0,0,0,0,0,0,0,0,0,0,0,0,0,0,0,0,0,0,0,0,0,0,0,0,0,0,0,0,0,0,0,0,0,0.2257,0.2257,0,0.222,0.222,0.2219,0.2194,0.2194,0.2194,0.2194,0.2163,0.2162,0.2161,0,0,0,0,0,0,0,0,0,0,0,0,0,0.2313,0.2312,0.2257,0.2257,0.2256,0.2221,0.222,0.2219,0.2194,0.2194,0.2194,0.2193,0.2163,0.2162,0.2161,0,0,0,0,0,0,0,0,0,0,0,0,0,0.2282,0.2312,0.2257,0.224,0.2239,0.2221,0.222,0.2219,0.2194,0.2194,0.2194,0.2193,0.2163,0.2162,0.2161,0.2155,0,0,0.2158,0.2157,0,0,0,0,0,0,0,0,0.2284,0.228,0.2243,0.2242,0.224,0.2213,0.2229,0.2199,0.2194,0.2209,0.2194,0.2193,0.2181,0.2179,0.2169,0.2154,0.2153,0.2157,0.2157,0.2156,0.2156,0,0,0,0,0,0,0,0.2286,0.2282,0.2241,0.2243,0.2241,0.2238,0.2233,0.2223,0.2195,0.2208,0.2206,0.2205,0.218,0.2171,0.2169,0.2152,0.2157,0.2156,0.2156,0.2155,0.2165,0.2166,0,0,0,0,0,0,0.2294,0.2283,0.2242,0.224,0.2264,0.2237,0.2232,0.222,0.2195,0.2191,0.2205,0.2204,0.2173,0.217,0.2167,0.2187,0.2156,0.2155,0.2155,0.2164,0.2165,0.2166,0,0,0,0,0,0,0.2295,0.229,0.2243,0.2263,0.2257,0.2236,0.2224,0.222,0.2215,0.2193,0.2189,0.2205,0.2172,0.2169,0.2168,0.2185,0.2155,0.2154,0.2163,0.2165,0.2166,0.2209,0,0,0,0,0,0,0.2296,0.229,0.2287,0.2263,0.2256,0.2241,0.2224,0.2219,0.2214,0.2213,0.2192,0.2188,0.2172,0.217,0.2167,0.2183,0.2153,0.2162,0.2164,0.2165,0.2206,0.2212,0.2216,0,0,0,0,0,0.2298,0.2291,0.2287,0.2282,0.2251,0.2242,0.2238,0.2222,0.2215,0.2216,0.2205,0.2189,0.2179,0.217,0.2166,0.2182,0.2161,0.2163,0.2165,0.2204,0.2211,0.2216,0,0,0,0,0,0,0.2301,0.2287,0.2282,0.2267,0.2261,0.2238,0.2237,0.2227,0.2218,0.2217,0.2196,0.2192,0.2199,0.2186,0.2175,0.2192,0.217,0.2171,0.2201,0.2207,0.2212,0.2212,0.2152,0,0,0,0,0,0.2304,0.23,0.2287,0.2275,0.2275,0.2259,0.2253,0.2244,0.2232,0.2227,0.2213,0.2204,0.2204,0.2202,0.2195,0.22,0.2196,0.221,0.2215,0.2219,0.2218,0.2237,0.2244,0.2173,0.2173,0.2173,0,0,0.2297,0.2293,0.2286,0.2277,0.2269,0.2269,0.2255,0.225,0.225,0.2226,0.2222,0.2219,0.221,0.2218,0.222,0.2208,0.2238,0.2222,0.2226,0.2222,0.224,0.2247,0.2253,0.2175,0.2175,0.2174,0,0,0.229,0.2284,0.2284,0.2285,0.2284,0.2278,0.2282,0.2267,0.2264,0.2265,0.2253,0.2261,0.225,0.2251,0.225,0.2279,0.2265,0.228,0.2303,0.2322,0.2327,0.2333,0.2339,0.2345,0.2282,0.2282,0.2282,0,0.2284,0.2277,0.2282,0.2287,0.2287,0.2286,0.2286,0.2286,0.2272,0.228,0.2271,0.2277,0.2268,0.2286,0.2296,0.2291,0.2294,0.228,0.2328,0.2333,0.2337,0.2343,0.2348,0.2284,0.2284,0.2284,0.2283,0,0.228,0.2277,0.2279,0.2286,0.2292,0.229,0.2298,0.2305,0.2307,0.231,0.233,0.2322,0.2326,0.2331,0.232,0.2351,0.2341,0.2333,0.2312,0.2347,0.2351,0.2356,0.2287,0.2287,0.2286,0.2285,0,0,0.2243,0.2271,0.2267,0.2272,0.2291,0.2288,0.231,0.2326,0.2341,0.2348,0.2366,0.2377,0.2381,0.238,0.2373,0.2388,0.2422,0.2374,0.2374,0.2379,0.2459,0.2408,0.2408,0.2426,0.2427,0.2428,0.2449,0,0.2232,0.2239,0.226,0.2262,0.2264,0.2289,0.2307,0.2329,0.2352,0.2373,0.2392,0.2405,0.2398,0.2401,0.2419,0.2423,0.2436,0.2416,0.2425,0.2425,0.2375,0.2413,0.2319,0.2327,0.2454,0.2455,0.2455,0,0.2208,0.2219,0.2224,0.2249,0.2254,0.2264,0.2299,0.2318,0.237,0.2391,0.2427,0.2435,0.2465,0.2446,0.2481,0.247,0.2466,0.2467,0.2468,0.2406,0.2383,0.2313,0.2331,0.2306,0.2462,0.2462,0.2461,0,0.2162,0.2184,0.2188,0.2194,0.2232,0.2246,0.2271,0.2323,0.2348,0.2406,0.2427,0.247,0.2483,0.2502,0.2507,0.2497,0.2538,0.2525,0.2475,0.2471,0.2385,0.2371,0.2376,0.2543,0.2543,0.2543,0.2543,0,0.2126,0.2125,0.2167,0.2165,0.2177,0.2219,0.2245,0.2285,0.2346,0.2375,0.2429,0.2453,0.2497,0.2522,0.2525,0.2519,0.2556,0.2484,0.2477,0.2397,0.2385,0.2352,0.2346,0.2544,0.2544,0.2543,0.2543,0,0.2067,0.2095,0.21,0.2141,0.2154,0.2163,0.2223,0.2242,0.2313,0.2353,0.2369,0.2449,0.2489,0.252,0.2553,0.253,0.2463,0.2517,0.2414,0.2395,0.2307,0.2307,0.2172,0.2101,0.2465,0.2463,0.2463,0,0.2037,0.2034,0.207,0.2074,0.2092,0.212,0.2136,0.2214,0.2242,0.2341,0.2349,0.2416,0.2448,0.2491,0.2477,0.2478,0.242,0.2372,0.2332,0.2294,0.229,0.2183,0.2126,0.2239,0.2236,0.2234,0.2232,0,0.1981,0.1997,0.2007,0.2015,0.2027,0.2045,0.2081,0.21,0.2188,0.2224,0.2287,0.2329,0.2385,0.2358,0.2363,0.2349,0.2259,0.2325,0.2318,0.2139,0.1991,0.1922,0.2233,0.2213,0.2215,0.2216,0.2217,0.2218,0.194,0.1932,0.1945,0.1945,0.1957,0.1961,0.1952,0.1997,0.2029,0.2069,0.2173,0.2203,0.2241,0.2244,0.2216,0.2135,0.2118,0.2072,0.2084,0.1985,0.1882,0.2143,0.2096,0.2097,0.2098,0.2099,0.21,0,0.1872,0.1872,0.1873,0.1866,0.1842,0.188,0.1895,0.1873,0.1867,0.1949,0.1988,0.203,0.2011,0.2036,0.1995,0.1919,0.1803,0.1876,0.1728,0.1692,0.1963,0.1921,0.1795,0.1795,0.1795,0.1795,0.1795,0.1795,0.1838,0.1809,0.1806,0.1749,0.1742,0.169,0.1681,0.1668,0.1705,0.1718,0.1745,0.1796,0.1902,0.1903,0.1845,0.1797,0.1673,0.1566,0.1578,0.1824,0.1844,0.1862,0.1822,0.1678,0.1677,0.1205,0.1202,0.1199]},{"header":{"parameterUnit":"m.s-1","parameterCategory":2,"la1":30.2991,"la2":30.254,"lo1":-89.0895,"lo2":-89.0444,"dx":0.0017,"dy":0.0017,"nx":28,"ny":28,"refTime":"2023-01-23T03:00:00:Z","depth":"0","parameterNumber":3,"parameterNumberName":"V-component_of_CURRENTS"},"data":[0,0,0,0,0,0,0,0,0,0,0,0,0,0,0,0,0,0,0,0,0,0,0,0,0,0,0,0,0,0,0,0,0,0,0,0,0,0,0,0,0,0,0,0,0,0,0,0,0,0,0,0,0,0,0,0,0,0,-0.0118,-0.0118,0,-0.0125,-0.0125,-0.0126,-0.0132,-0.0132,-0.0132,-0.0132,-0.0169,-0.017,-0.0171,0,0,0,0,0,0,0,0,0,0,0,0,0,-0.0123,-0.0123,-0.0118,-0.0118,-0.0118,-0.0125,-0.0125,-0.0126,-0.0132,-0.0132,-0.0132,-0.0132,-0.0168,-0.017,-0.0171,0,0,0,0,0,0,0,0,0,0,0,0,0,-0.0126,-0.0123,-0.0118,-0.0121,-0.0122,-0.0125,-0.0125,-0.0126,-0.0132,-0.0132,-0.0132,-0.0132,-0.0168,-0.017,-0.0171,-0.0182,0,0,-0.0176,-0.0176,0,0,0,0,0,0,0,0,-0.0126,-0.0126,-0.0121,-0.0121,-0.0121,-0.0127,-0.014,-0.0145,-0.0132,-0.013,-0.0132,-0.0132,-0.0157,-0.0159,-0.0162,-0.0184,-0.0185,-0.0176,-0.0177,-0.0177,-0.0178,0,0,0,0,0,0,0,-0.0126,-0.0126,-0.0123,-0.0121,-0.0121,-0.0126,-0.0127,-0.0142,-0.0145,-0.013,-0.013,-0.0129,-0.0157,-0.0161,-0.0163,-0.0186,-0.0176,-0.0177,-0.0178,-0.0179,-0.0204,-0.0204,0,0,0,0,0,0,-0.0121,-0.0126,-0.0122,-0.0123,-0.0122,-0.0126,-0.0127,-0.0126,-0.0144,-0.0146,-0.0129,-0.0129,-0.0158,-0.0161,-0.0164,-0.0156,-0.0177,-0.0179,-0.018,-0.0204,-0.0204,-0.0204,0,0,0,0,0,0,-0.0122,-0.0121,-0.0122,-0.0123,-0.0123,-0.0126,-0.0126,-0.0126,-0.0127,-0.0143,-0.0146,-0.0127,-0.0158,-0.0162,-0.0168,-0.0159,-0.018,-0.0181,-0.0204,-0.0204,-0.0204,-0.0155,0,0,0,0,0,0,-0.0122,-0.0121,-0.012,-0.0123,-0.0123,-0.0117,-0.0125,-0.0126,-0.0125,-0.0125,-0.0143,-0.0146,-0.0158,-0.0166,-0.017,-0.0161,-0.0182,-0.0205,-0.0204,-0.0204,-0.0156,-0.0153,-0.0149,0,0,0,0,0,-0.0122,-0.0116,-0.012,-0.012,-0.0122,-0.0117,-0.0117,-0.012,-0.0125,-0.0121,-0.0131,-0.0145,-0.0166,-0.0167,-0.0171,-0.0163,-0.0205,-0.0204,-0.0204,-0.0158,-0.0153,-0.0149,0,0,0,0,0,0,-0.0113,-0.0117,-0.0121,-0.0116,-0.0114,-0.0117,-0.0114,-0.0118,-0.0123,-0.0124,-0.0142,-0.0146,-0.0149,-0.0164,-0.0165,-0.017,-0.0188,-0.0189,-0.0152,-0.0148,-0.0144,-0.0124,-0.0183,0,0,0,0,0,-0.0112,-0.0112,-0.0113,-0.0109,-0.0107,-0.0112,-0.0111,-0.0112,-0.0115,-0.0118,-0.0129,-0.0142,-0.0151,-0.0155,-0.0168,-0.017,-0.0183,-0.0169,-0.0165,-0.0162,-0.015,-0.016,-0.0156,-0.0202,-0.0202,-0.0202,0,0,-0.0108,-0.0109,-0.0109,-0.0107,-0.0108,-0.0095,-0.0111,-0.0105,-0.009,-0.0122,-0.0111,-0.0132,-0.015,-0.015,-0.0153,-0.016,-0.0158,-0.0161,-0.0158,-0.0147,-0.0159,-0.0154,-0.015,-0.0201,-0.0201,-0.0201,0,0,-0.0089,-0.0099,-0.0089,-0.0086,-0.0083,-0.0083,-0.0079,-0.0081,-0.0079,-0.0074,-0.0092,-0.0102,-0.0118,-0.0124,-0.013,-0.0116,-0.014,-0.0126,-0.0088,-0.0098,-0.0094,-0.009,-0.0105,-0.0104,-0.0121,-0.0121,-0.0121,0,-0.0081,-0.0068,-0.0084,-0.0069,-0.0058,-0.0074,-0.0051,-0.0052,-0.0054,-0.0045,-0.0064,-0.0081,-0.0102,-0.0092,-0.0088,-0.0106,-0.0118,-0.0101,-0.0091,-0.0088,-0.0086,-0.0102,-0.0101,-0.0119,-0.0119,-0.0119,-0.0119,0,-0.0051,-0.0041,-0.0033,-0.002,-0.0013,0.0003,0.0004,0.0009,0.0004,0.0006,0.0008,-0.0024,-0.003,-0.0044,-0.0061,-0.0052,-0.007,-0.0087,-0.0099,-0.0078,-0.0097,-0.0097,-0.0115,-0.0116,-0.0117,-0.0117,0,0,-0.0021,-0.0013,-0.0007,0.001,0.0018,0.0032,0.0051,0.0072,0.0098,0.0075,0.0101,0.0072,0.005,0.0041,0.0011,0.0,-0.0001,-0.0031,-0.0033,-0.004,-0.0026,-0.0038,-0.0039,-0.0017,-0.0017,-0.0017,-0.0048,0,0.0015,0.0052,0.0047,0.009,0.0113,0.0106,0.013,0.0143,0.0147,0.0164,0.013,0.0134,0.0084,0.0078,0.0061,0.0018,0.0003,0.0009,-0.0051,-0.0052,-0.006,-0.0037,-0.0022,-0.0049,-0.0048,-0.0048,-0.0048,0,0.0058,0.0077,0.0123,0.0154,0.0164,0.0188,0.023,0.025,0.0262,0.0263,0.0253,0.0222,0.0201,0.0151,0.0093,0.0099,0.0044,0.0004,0.0002,-0.0023,-0.0063,-0.007,-0.0048,-0.0132,-0.0048,-0.0048,-0.0048,0,0.0102,0.0136,0.0177,0.0188,0.0217,0.0242,0.0261,0.0286,0.0318,0.0326,0.0339,0.0304,0.029,0.0219,0.0127,0.0111,0.0062,0.0028,-0.0035,-0.0037,-0.0042,-0.0044,-0.01,-0.0011,-0.001,-0.001,-0.001,0,0.0149,0.0183,0.0203,0.0227,0.0288,0.029,0.0357,0.0369,0.0399,0.0451,0.0392,0.0415,0.0308,0.0258,0.0161,0.0072,0.0085,-0.0018,-0.004,-0.0026,-0.0027,-0.0115,-0.0184,-0.0012,-0.0011,-0.0011,-0.0011,0,0.0193,0.0203,0.0254,0.0292,0.0311,0.0357,0.0417,0.0464,0.0476,0.0538,0.0538,0.0507,0.0445,0.0327,0.0222,0.0128,-0.0024,-0.0007,0.0015,-0.0004,-0.0145,-0.0212,-0.0279,-0.0354,-0.0078,-0.0078,-0.0078,0,0.0218,0.0248,0.0306,0.0345,0.0366,0.0428,0.0478,0.0508,0.0562,0.0602,0.0638,0.0591,0.058,0.0412,0.0242,0.0077,-0.0031,-0.0026,-0.0054,-0.0138,-0.0231,-0.0255,-0.0315,-0.0046,-0.0046,-0.0046,-0.0046,0,0.0268,0.0288,0.0329,0.0406,0.0465,0.0533,0.0603,0.0658,0.0703,0.075,0.0803,0.0793,0.0634,0.0486,0.0254,0.0133,-0.0092,-0.0032,-0.0121,-0.0207,-0.0234,-0.0321,-0.0048,-0.0047,-0.0047,-0.0047,-0.0047,-0.0047,0.0309,0.0345,0.0399,0.0475,0.0542,0.0629,0.0696,0.0773,0.0867,0.0942,0.0928,0.0935,0.0709,0.0401,0.0221,-0.0082,-0.0105,-0.0171,-0.0245,-0.026,-0.0331,-0.0059,-0.0084,-0.0084,-0.0084,-0.0084,-0.0084,0,0.0355,0.0395,0.0464,0.0551,0.0629,0.0657,0.0774,0.0847,0.0965,0.1029,0.1068,0.0963,0.0688,0.0387,-0.0024,-0.0243,-0.0331,-0.0367,-0.04,-0.0456,-0.0206,-0.0204,-0.0252,-0.0252,-0.0252,-0.0252,-0.0252,-0.0252,0.038,0.0447,0.0479,0.0608,0.0672,0.0781,0.0851,0.0962,0.1038,0.1117,0.1119,0.108,0.0861,0.0202,-0.0285,-0.0428,-0.0607,-0.0618,-0.0735,-0.0561,-0.0548,-0.0536,-0.0547,-0.0667,-0.0668,-0.0934,-0.0937,-0.0939]}],[{"header":{"parameterUnit":"m.s-1","parameterCategory":2,"la1":30.2991,"la2":30.254,"lo1":-89.0895,"lo2":-89.0444,"dx":0.0017,"dy":0.0017,"nx":28,"ny":28,"refTime":"2023-01-23T03:00:00:Z","depth":"2","parameterNumber":2,"parameterNumberName":"U-component_of_CURRENTS"},"data":[0,0,0,0,0,0,0,0,0,0,0,0,0,0,0,0,0,0,0,0,0,0,0,0,0,0,0,0,0,0,0,0,0,0,0,0,0,0,0,0,0,0,0,0,0,0,0,0,0,0,0,0,0,0,0,0,0,0,0.2076,0.2076,0,0.2059,0.2058,0.2058,0.2052,0.2052,0.2052,0.2052,0.2041,0.204,0.204,0,0,0,0,0,0,0,0,0,0,0,0,0,0.2104,0.2103,0.2076,0.2076,0.2076,0.2059,0.2058,0.2058,0.2052,0.2052,0.2052,0.2052,0.2041,0.204,0.204,0,0,0,0,0,0,0,0,0,0,0,0,0,0.2088,0.2103,0.2076,0.2071,0.2071,0.2059,0.2058,0.2058,0.2052,0.2052,0.2052,0.2052,0.2041,0.2041,0.204,0.203,0,0,0.2038,0.2037,0,0,0,0,0,0,0,0,0.2089,0.2087,0.2072,0.2072,0.2071,0.2059,0.2064,0.2049,0.2052,0.2057,0.2052,0.2053,0.2048,0.2047,0.2041,0.203,0.2029,0.2038,0.2037,0.2037,0.2037,0,0,0,0,0,0,0,0.209,0.2088,0.2068,0.2072,0.2072,0.2071,0.2069,0.2061,0.2051,0.2057,0.2057,0.2057,0.2048,0.2042,0.2041,0.2029,0.2038,0.2037,0.2037,0.2036,0.2056,0.2057,0,0,0,0,0,0,0.2094,0.2089,0.2068,0.2067,0.2083,0.207,0.2068,0.2061,0.205,0.2049,0.2057,0.2057,0.2043,0.2042,0.204,0.2071,0.2037,0.2036,0.2036,0.2055,0.2057,0.2058,0,0,0,0,0,0,0.2095,0.2093,0.2069,0.2079,0.2076,0.2069,0.2062,0.2061,0.2067,0.2051,0.2049,0.2066,0.2043,0.2041,0.2048,0.2069,0.2036,0.2035,0.2054,0.2056,0.2057,0.2104,0,0,0,0,0,0,0.2096,0.2093,0.2097,0.2079,0.2076,0.2073,0.2062,0.206,0.2067,0.2067,0.2058,0.2057,0.2043,0.2049,0.2048,0.2067,0.2035,0.2053,0.2055,0.2057,0.2101,0.2107,0.2112,0,0,0,0,0,0.2097,0.2097,0.2097,0.2095,0.2079,0.2074,0.2072,0.2067,0.2067,0.2074,0.207,0.2057,0.206,0.2049,0.2047,0.2067,0.2052,0.2054,0.2057,0.2099,0.2106,0.2112,0,0,0,0,0,0,0.2105,0.2096,0.2095,0.2092,0.209,0.2074,0.208,0.2076,0.2077,0.2081,0.2065,0.2063,0.2079,0.2066,0.2055,0.2079,0.2056,0.2058,0.2089,0.2095,0.21,0.21,0.2034,0,0,0,0,0,0.2111,0.2111,0.2103,0.2101,0.2104,0.2096,0.2096,0.2093,0.2088,0.2089,0.2082,0.208,0.2084,0.2085,0.2082,0.2091,0.2085,0.2104,0.2109,0.2114,0.2113,0.213,0.2137,0.2065,0.2065,0.2065,0,0,0.211,0.2108,0.2106,0.2104,0.2103,0.2106,0.2097,0.2101,0.2105,0.2087,0.2096,0.2098,0.2091,0.2104,0.211,0.2097,0.2132,0.2116,0.212,0.2117,0.2133,0.214,0.2146,0.2066,0.2066,0.2066,0,0,0.211,0.2113,0.2116,0.212,0.2126,0.2122,0.2128,0.2123,0.2127,0.2135,0.2129,0.2143,0.2141,0.2142,0.2142,0.2174,0.2161,0.2178,0.2201,0.2219,0.2225,0.223,0.2235,0.2241,0.2178,0.2179,0.2179,0,0.2112,0.211,0.2117,0.2124,0.2128,0.2132,0.2137,0.2142,0.2139,0.215,0.2147,0.2164,0.2159,0.2179,0.2191,0.2187,0.219,0.2178,0.2226,0.223,0.2235,0.2239,0.2244,0.2181,0.2181,0.218,0.218,0,0.2113,0.2117,0.2122,0.2132,0.2141,0.2145,0.2155,0.2169,0.2179,0.2185,0.2214,0.2211,0.2222,0.2228,0.2218,0.2251,0.2241,0.2232,0.2209,0.2245,0.2247,0.2252,0.2185,0.2184,0.2183,0.2182,0,0,0.2089,0.2116,0.2115,0.2123,0.2145,0.2146,0.2173,0.2192,0.2211,0.2227,0.2251,0.2269,0.2277,0.2277,0.2274,0.2287,0.2323,0.2275,0.2275,0.2279,0.2357,0.2303,0.2303,0.2326,0.2327,0.2328,0.2347,0,0.2083,0.2094,0.2113,0.2123,0.2128,0.2154,0.2176,0.2201,0.2228,0.2255,0.2277,0.2298,0.2293,0.2303,0.232,0.2324,0.2337,0.2318,0.2322,0.2322,0.2269,0.2307,0.2106,0.2102,0.2351,0.2352,0.2353,0,0.2066,0.2077,0.2088,0.2117,0.2123,0.2138,0.2179,0.2201,0.2254,0.2279,0.2318,0.233,0.2362,0.2347,0.2381,0.2371,0.2368,0.2367,0.2368,0.2302,0.2276,0.2106,0.21,0.236,0.2359,0.2359,0.2358,0,0.2028,0.2053,0.2062,0.207,0.2109,0.2129,0.2156,0.221,0.2237,0.2299,0.2322,0.2367,0.2385,0.2402,0.2407,0.2398,0.2435,0.2421,0.2368,0.2364,0.2183,0.2162,0.2439,0.2439,0.2439,0.2439,0.2438,0,0.1998,0.2003,0.2047,0.2048,0.2067,0.211,0.2143,0.2184,0.2246,0.2276,0.233,0.2354,0.24,0.2422,0.2424,0.2414,0.2452,0.2377,0.2369,0.2194,0.2175,0.2388,0.2382,0.2439,0.2439,0.2439,0.2439,0,0.1949,0.1977,0.1988,0.2032,0.2048,0.2064,0.2128,0.2149,0.2221,0.2262,0.2281,0.2356,0.2392,0.2421,0.245,0.2425,0.2424,0.2406,0.2196,0.2163,0.2336,0.2332,0.2351,0.2349,0.2347,0.2346,0.2345,0,0.1924,0.1924,0.1966,0.1973,0.1994,0.2029,0.2049,0.2128,0.2154,0.2252,0.2258,0.2324,0.2348,0.2382,0.2348,0.2339,0.2398,0.2141,0.2087,0.2338,0.2329,0.2327,0.2325,0.1866,0.1861,0.1857,0.1854,0,0.1876,0.1895,0.1907,0.192,0.1939,0.1959,0.1999,0.2016,0.2103,0.2137,0.2193,0.2228,0.2261,0.2163,0.2155,0.2125,0.213,0.2061,0.2375,0.1927,0.1884,0.1875,0.1888,0.1819,0.1822,0.1825,0.1827,0.1828,0.1842,0.1837,0.1853,0.1858,0.1874,0.1879,0.187,0.1909,0.1938,0.1957,0.2058,0.2028,0.2031,0.192,0.1853,0.1795,0.195,0.1845,0.1856,0.1871,0.1818,0.1777,0.168,0.1683,0.1685,0.1687,0.1689,0,0.1779,0.1783,0.1787,0.1784,0.1761,0.1804,0.1817,0.1779,0.1763,0.1796,0.1814,0.1646,0.1571,0.1581,0.1431,0.1426,0.1401,0.1368,0.1308,0.1344,0.1376,0.1297,0.1022,0.102,0.1018,0.1016,0,0,0.1749,0.1722,0.1719,0.1666,0.1665,0.1611,0.1601,0.1555,0.1544,0.148,0.1432,0.1508,0.1541,0.1262,0.1219,0.1094,0.1216,0.1051,0.1587,0.1555,0.1584,0.1653,0.1573,0,0,0,0,0]},{"header":{"parameterUnit":"m.s-1","parameterCategory":2,"la1":30.2991,"la2":30.254,"lo1":-89.0895,"lo2":-89.0444,"dx":0.0017,"dy":0.0017,"nx":28,"ny":28,"refTime":"2023-01-23T03:00:00:Z","depth":"2","parameterNumber":3,"parameterNumberName":"V-component_of_CURRENTS"},"data":[0,0,0,0,0,0,0,0,0,0,0,0,0,0,0,0,0,0,0,0,0,0,0,0,0,0,0,0,0,0,0,0,0,0,0,0,0,0,0,0,0,0,0,0,0,0,0,0,0,0,0,0,0,0,0,0,0,0,0.0096,0.0096,0,0.0082,0.0082,0.0082,0.0062,0.0062,0.0062,0.0062,0.0022,0.0021,0.002,0,0,0,0,0,0,0,0,0,0,0,0,0,0.0095,0.0095,0.0096,0.0096,0.0096,0.0082,0.0082,0.0081,0.0062,0.0062,0.0062,0.0062,0.0022,0.0021,0.002,0,0,0,0,0,0,0,0,0,0,0,0,0,0.0088,0.0095,0.0096,0.0086,0.0085,0.0082,0.0082,0.0081,0.0062,0.0062,0.0062,0.0061,0.0022,0.0021,0.002,0.0017,0,0,0.0015,0.0015,0,0,0,0,0,0,0,0,0.0088,0.0088,0.0087,0.0086,0.0085,0.0075,0.0067,0.0059,0.0062,0.0069,0.0062,0.0061,0.0038,0.0036,0.0032,0.0015,0.0013,0.0015,0.0015,0.0014,0.0014,0,0,0,0,0,0,0,0.0089,0.0088,0.0089,0.0087,0.0086,0.0079,0.0077,0.0065,0.0054,0.0068,0.0067,0.0069,0.0037,0.0033,0.0031,0.0012,0.0015,0.0014,0.0013,0.0013,-0.0013,-0.0013,0,0,0,0,0,0,0.0095,0.0089,0.0089,0.0088,0.0088,0.0079,0.0077,0.0077,0.0054,0.0051,0.0069,0.0068,0.0035,0.0032,0.0029,0.0028,0.0014,0.0013,0.0012,-0.0013,-0.0013,-0.0013,0,0,0,0,0,0,0.0095,0.0095,0.009,0.009,0.0089,0.008,0.0079,0.0077,0.0069,0.0055,0.0051,0.0063,0.0035,0.0031,0.0023,0.0027,0.0012,0.0011,-0.0013,-0.0013,-0.0013,0.0024,0,0,0,0,0,0,0.0095,0.0095,0.0093,0.009,0.0089,0.0091,0.008,0.0077,0.0071,0.007,0.0049,0.0045,0.0035,0.0025,0.0021,0.0024,0.001,-0.0014,-0.0013,-0.0013,0.0023,0.0026,0.0028,0,0,0,0,0,0.0095,0.0099,0.0093,0.0093,0.0088,0.0091,0.009,0.0081,0.0071,0.0071,0.006,0.0046,0.0024,0.0024,0.002,0.0023,-0.0014,-0.0013,-0.0013,0.0022,0.0025,0.0028,0,0,0,0,0,0,0.0097,0.0097,0.009,0.0093,0.0092,0.0088,0.0087,0.008,0.007,0.0066,0.0049,0.0045,0.0037,0.0025,0.0026,0.0015,0.0002,0.0001,0.0029,0.0033,0.0035,0.0053,0.0009,0,0,0,0,0,0.0097,0.0099,0.0097,0.0099,0.0099,0.0091,0.0089,0.0084,0.0078,0.0073,0.0059,0.0045,0.0036,0.003,0.0018,0.0015,0.0002,0.0012,0.0015,0.0017,0.0029,0.0016,0.0019,-0.0012,-0.0012,-0.0012,0,0,0.0098,0.0099,0.0098,0.0099,0.0095,0.0106,0.0088,0.0089,0.0099,0.007,0.0072,0.0051,0.0036,0.0033,0.0028,0.0023,0.0017,0.0017,0.002,0.003,0.0016,0.002,0.0022,-0.0012,-0.0012,-0.0012,0,0,0.0111,0.0101,0.0111,0.0112,0.0113,0.0112,0.0113,0.0107,0.0104,0.0104,0.0086,0.0073,0.0056,0.005,0.0045,0.0054,0.003,0.0042,0.0073,0.0061,0.0063,0.0066,0.0047,0.0047,0.0046,0.0046,0.0046,0,0.0113,0.0126,0.0114,0.0127,0.0135,0.0117,0.0136,0.0132,0.0125,0.013,0.0109,0.0089,0.0069,0.0076,0.0077,0.0062,0.0047,0.0064,0.0065,0.0067,0.0069,0.0049,0.0049,0.0048,0.0048,0.0047,0.0047,0,0.0139,0.0147,0.0154,0.0166,0.0171,0.0183,0.0182,0.0182,0.0171,0.017,0.0165,0.0135,0.0126,0.0112,0.0097,0.01,0.0082,0.0068,0.006,0.0074,0.0052,0.0051,0.0051,0.005,0.0049,0.0049,0,0,0.0159,0.0171,0.0175,0.0189,0.0195,0.0207,0.022,0.0236,0.0255,0.0228,0.0246,0.0216,0.0193,0.0185,0.0156,0.0143,0.0132,0.0113,0.0111,0.01,0.0098,0.0085,0.0082,0.0116,0.0116,0.0117,0.0075,0,0.0188,0.0222,0.022,0.0256,0.0276,0.0268,0.0289,0.0297,0.0296,0.0305,0.0271,0.027,0.0224,0.0215,0.0194,0.0152,0.0133,0.0144,0.0081,0.008,0.0071,0.0082,0.0104,0.007,0.0074,0.0074,0.0074,0,0.0223,0.0242,0.0282,0.0311,0.032,0.0339,0.0373,0.0389,0.0396,0.0393,0.0378,0.0346,0.0321,0.0275,0.0212,0.022,0.0164,0.0125,0.0122,0.01,0.0066,0.0057,0.0068,0.0072,0.0073,0.0073,0.0073,0,0.0257,0.0289,0.0325,0.0335,0.0362,0.0382,0.0399,0.0418,0.0447,0.0447,0.0457,0.0417,0.04,0.0328,0.0236,0.0224,0.0164,0.0136,0.0071,0.0069,0.0072,0.007,0.0092,0.0092,0.0093,0.0093,0.0093,0,0.0296,0.0324,0.0345,0.0366,0.042,0.0421,0.0479,0.0489,0.0514,0.056,0.0502,0.0519,0.0413,0.036,0.0265,0.0171,0.0183,0.0084,0.0062,0.0084,0.0084,0.0075,0.0074,0.0091,0.0091,0.0092,0.0092,0,0.0329,0.0339,0.0385,0.042,0.0438,0.0477,0.0533,0.0575,0.0584,0.0637,0.0636,0.0601,0.0534,0.0418,0.0309,0.0218,0.0122,0.0082,0.0111,0.0094,0.0024,0.0025,0.0007,0.0006,0.0006,0.0005,0.0005,0,0.0348,0.0375,0.0428,0.0464,0.0483,0.0539,0.0585,0.0613,0.0663,0.0695,0.0727,0.0673,0.0655,0.0482,0.0317,0.0153,0.0124,0.0059,0.0039,0.0037,0.0018,0.002,0.0022,0.0052,0.0052,0.0052,0.0052,0,0.0389,0.0407,0.0444,0.0516,0.057,0.0636,0.07,0.0751,0.0793,0.0833,0.0875,0.0857,0.0695,0.0545,0.0317,0.0204,0.0085,0.0053,0.0054,0.0071,0.0076,0.0058,0.0059,0.0052,0.0052,0.0052,0.0052,0.0052,0.0421,0.0455,0.0505,0.0575,0.0639,0.0723,0.0786,0.0857,0.0942,0.0999,0.0981,0.095,0.0775,0.0485,0.0297,0.0088,0.0091,0.0014,0.0015,0.0016,0.003,0.0035,0.0004,0.0004,0.0003,0.0003,0.0003,0,0.046,0.0498,0.0562,0.0645,0.0719,0.0746,0.0858,0.0923,0.1027,0.1058,0.1081,0.0912,0.0737,0.0522,0.0222,0.0047,0.0033,-0.0016,0.001,0.0012,0.0013,0.0027,-0.0,-0.0001,-0.0001,-0.0002,0,0,0.0482,0.0544,0.0576,0.0697,0.0758,0.0863,0.0929,0.1025,0.1074,0.1116,0.1087,0.1026,0.0785,0.0567,0.0336,0.0167,0.0125,0.0129,0.0151,0.0212,0.0215,0.0052,0.0078,0,0,0,0,0]}],[{"header":{"parameterUnit":"m.s-1","parameterCategory":2,"la1":30.2991,"la2":30.254,"lo1":-89.0895,"lo2":-89.0444,"dx":0.0017,"dy":0.0017,"nx":28,"ny":28,"refTime":"2023-01-23T03:00:00:Z","depth":"4","parameterNumber":2,"parameterNumberName":"U-component_of_CURRENTS"},"data":[0,0,0,0,0,0,0,0,0,0,0,0,0,0,0,0,0,0,0,0,0,0,0,0,0,0,0,0,0,0,0,0,0,0,0,0,0,0,0,0,0,0,0,0,0,0,0,0,0,0,0,0,0,0,0,0,0,0,0.105,0.1051,0,0.1089,0.1089,0.109,0.1135,0.1136,0.1137,0.1137,0.1173,0.1173,0.1173,0,0,0,0,0,0,0,0,0,0,0,0,0,0.1044,0.1044,0.105,0.1051,0.1051,0.1089,0.1089,0.109,0.1135,0.1136,0.1137,0.1138,0.1173,0.1173,0.1173,0,0,0,0,0,0,0,0,0,0,0,0,0,0.1059,0.1043,0.105,0.1079,0.1083,0.1089,0.1089,0.109,0.1135,0.1136,0.1137,0.1138,0.1173,0.1173,0.1173,0.115,0,0,0.1174,0.1174,0,0,0,0,0,0,0,0,0.1058,0.1059,0.1074,0.1077,0.1081,0.111,0.11,0.111,0.1134,0.1113,0.1137,0.1139,0.1151,0.1153,0.1156,0.1151,0.1153,0.1174,0.1174,0.1174,0.1174,0,0,0,0,0,0,0,0.1057,0.1058,0.1064,0.1075,0.1079,0.1101,0.1104,0.1102,0.1124,0.1115,0.1119,0.1125,0.1153,0.1156,0.1157,0.1154,0.1174,0.1174,0.1174,0.1174,0.1231,0.1232,0,0,0,0,0,0,0.1053,0.1057,0.1063,0.1065,0.1074,0.11,0.1103,0.1098,0.1124,0.1129,0.1124,0.1127,0.1154,0.1157,0.1159,0.122,0.1174,0.1174,0.1175,0.1229,0.1231,0.1232,0,0,0,0,0,0,0.1052,0.1052,0.1061,0.1064,0.1067,0.1099,0.1092,0.1098,0.1131,0.1131,0.1137,0.1155,0.1156,0.1158,0.1188,0.1219,0.1175,0.1175,0.1228,0.123,0.1232,0.1287,0,0,0,0,0,0,0.1051,0.1051,0.106,0.1063,0.1067,0.1084,0.1091,0.1098,0.1132,0.1137,0.1159,0.1162,0.1157,0.1188,0.1188,0.1218,0.1175,0.1226,0.1229,0.1231,0.1284,0.1291,0.1297,0,0,0,0,0,0.1051,0.1049,0.106,0.1062,0.1072,0.1085,0.1089,0.1115,0.1133,0.115,0.117,0.1163,0.1204,0.1189,0.1189,0.122,0.1225,0.1228,0.1231,0.1281,0.129,0.1297,0,0,0,0,0,0,0.1053,0.1054,0.1066,0.1066,0.1086,0.1094,0.1114,0.113,0.1158,0.1173,0.1174,0.1178,0.1218,0.1209,0.1192,0.1245,0.1215,0.1218,0.1253,0.1261,0.1268,0.1281,0.1175,0,0,0,0,0,0.1056,0.1058,0.1067,0.1074,0.1084,0.1106,0.112,0.1139,0.1157,0.1173,0.1189,0.1207,0.1224,0.1237,0.1246,0.1268,0.1267,0.1291,0.1297,0.1303,0.1315,0.134,0.135,0.1242,0.1242,0.1242,0,0,0.106,0.1062,0.1066,0.1077,0.1094,0.1113,0.1118,0.1148,0.1176,0.117,0.122,0.1232,0.1236,0.1268,0.1285,0.1269,0.1333,0.1307,0.1312,0.1321,0.1344,0.1355,0.1364,0.1244,0.1244,0.1243,0,0,0.1066,0.1073,0.1079,0.1096,0.1127,0.1138,0.1154,0.118,0.1208,0.1247,0.1256,0.1291,0.1311,0.1325,0.1331,0.1379,0.1368,0.1385,0.1429,0.1453,0.1462,0.147,0.1478,0.1486,0.1387,0.1387,0.1387,0,0.1078,0.108,0.1087,0.1103,0.1125,0.1153,0.1176,0.1202,0.1241,0.1268,0.1275,0.1334,0.134,0.138,0.1403,0.1396,0.1402,0.1396,0.1462,0.147,0.1477,0.1483,0.1491,0.139,0.139,0.139,0.1389,0,0.1083,0.1101,0.1109,0.1136,0.116,0.1186,0.1218,0.1258,0.1297,0.1324,0.1387,0.1402,0.144,0.1447,0.1442,0.1499,0.1484,0.1467,0.144,0.1491,0.1494,0.1502,0.1395,0.1394,0.1393,0.1392,0,0,0.1073,0.1106,0.1115,0.1136,0.1183,0.1199,0.1254,0.1304,0.1349,0.1399,0.1454,0.1497,0.152,0.153,0.1533,0.1556,0.1612,0.1542,0.1542,0.1549,0.1662,0.1542,0.1538,0.1609,0.1611,0.1613,0.1642,0,0.1084,0.1112,0.1131,0.1177,0.1196,0.1243,0.1288,0.1343,0.1395,0.1454,0.1494,0.1547,0.1546,0.1575,0.1604,0.1612,0.1636,0.1605,0.1613,0.1613,0.15,0.1545,0.1618,0.1647,0.1649,0.165,0.1651,0,0.1083,0.1103,0.1144,0.1197,0.1213,0.1253,0.1336,0.1382,0.1466,0.1509,0.1575,0.1605,0.1667,0.165,0.1706,0.1689,0.169,0.1687,0.1688,0.1563,0.1508,0.1588,0.1665,0.1664,0.1663,0.1662,0.1661,0,0.1063,0.1113,0.1148,0.1167,0.1231,0.1276,0.1325,0.1409,0.1456,0.1555,0.16,0.167,0.1714,0.1738,0.1751,0.1739,0.1791,0.1765,0.1656,0.1647,0.1721,0.1712,0.1803,0.1803,0.1803,0.1803,0.1803,0,0.1051,0.1083,0.1147,0.1166,0.1224,0.1277,0.1353,0.1414,0.1502,0.1557,0.1634,0.1677,0.1742,0.1775,0.1775,0.1739,0.1814,0.1674,0.1652,0.1743,0.1736,0.1726,0.1717,0.1804,0.1804,0.1803,0.1803,0,0.1021,0.1061,0.1106,0.1185,0.1215,0.1264,0.1364,0.1408,0.1504,0.1579,0.1615,0.1705,0.1746,0.178,0.1814,0.1754,0.1737,0.1703,0.1803,0.1784,0.1571,0.1565,0.1584,0.158,0.1576,0.1574,0.1571,0,0.1004,0.1025,0.1115,0.1145,0.1188,0.1263,0.1308,0.1406,0.1448,0.1577,0.1597,0.168,0.1725,0.1673,0.172,0.1703,0.1678,0.1652,0.1611,0.1575,0.1552,0.1551,0.1549,0.1566,0.1565,0.1564,0.1564,0,0.0974,0.1021,0.1056,0.1117,0.1171,0.1218,0.129,0.131,0.1417,0.1513,0.154,0.1556,0.1591,0.1601,0.1598,0.1584,0.166,0.1617,0.1624,0.1585,0.1554,0.1534,0.1536,0.1552,0.1554,0.1555,0.1556,0,0.0961,0.0977,0.1028,0.1072,0.1132,0.115,0.1197,0.1233,0.1283,0.1414,0.1421,0.1502,0.1583,0.154,0.1542,0.1515,0.1485,0.142,0.1436,0.1449,0.1389,0.1329,0.1247,0,0,0,0,0,0.0935,0.0935,0.0972,0.1005,0.106,0.1091,0.1168,0.1212,0.1312,0.1294,0.1351,0.1377,0.1379,0.1417,0.136,0.1477,0.149,0.1402,0.1425,0.1489,0.1502,0.1442,0,0,0,0,0,0,0.0912,0.0943,0.0945,0.0938,0.0947,0.099,0.1034,0.1102,0.1092,0.1201,0.1207,0.1284,0.1306,0.1397,0.1333,0.1342,0.1323,0.1451,0.1447,0.1481,0.1493,0.1504,0.1446,0,0,0,0,0]},{"header":{"parameterUnit":"m.s-1","parameterCategory":2,"la1":30.2991,"la2":30.254,"lo1":-89.0895,"lo2":-89.0444,"dx":0.0017,"dy":0.0017,"nx":28,"ny":28,"refTime":"2023-01-23T03:00:00:Z","depth":"4","parameterNumber":3,"parameterNumberName":"V-component_of_CURRENTS"},"data":[0,0,0,0,0,0,0,0,0,0,0,0,0,0,0,0,0,0,0,0,0,0,0,0,0,0,0,0,0,0,0,0,0,0,0,0,0,0,0,0,0,0,0,0,0,0,0,0,0,0,0,0,0,0,0,0,0,0,0.033,0.033,0,0.033,0.033,0.033,0.0331,0.0331,0.0331,0.0332,0.0343,0.0343,0.0343,0,0,0,0,0,0,0,0,0,0,0,0,0,0.0308,0.0308,0.033,0.033,0.033,0.033,0.033,0.033,0.0331,0.0331,0.0331,0.0332,0.0343,0.0343,0.0343,0,0,0,0,0,0,0,0,0,0,0,0,0,0.0313,0.0308,0.033,0.0331,0.0331,0.033,0.033,0.033,0.0331,0.0331,0.0331,0.0332,0.0342,0.0343,0.0343,0.0343,0,0,0.0344,0.0344,0,0,0,0,0,0,0,0,0.0313,0.0314,0.0331,0.0331,0.0331,0.0331,0.0326,0.0335,0.0331,0.0331,0.0332,0.0332,0.034,0.0341,0.034,0.0343,0.0344,0.0344,0.0344,0.0345,0.0345,0,0,0,0,0,0,0,0.0312,0.0314,0.0329,0.0331,0.0331,0.0324,0.0325,0.0328,0.0335,0.0331,0.0331,0.0332,0.034,0.0339,0.034,0.0344,0.0344,0.0344,0.0345,0.0345,0.0348,0.0348,0,0,0,0,0,0,0.0314,0.0313,0.0329,0.0329,0.0322,0.0324,0.0325,0.0331,0.0334,0.0335,0.0332,0.0332,0.0339,0.0339,0.034,0.0347,0.0344,0.0345,0.0345,0.0348,0.0348,0.0348,0,0,0,0,0,0,0.0314,0.0316,0.0329,0.0321,0.0323,0.0324,0.033,0.0331,0.0333,0.0335,0.0336,0.0335,0.0339,0.034,0.0348,0.0348,0.0345,0.0345,0.0348,0.0348,0.0348,0.0357,0,0,0,0,0,0,0.0313,0.0316,0.0322,0.0322,0.0323,0.0332,0.033,0.033,0.0333,0.0334,0.0338,0.0339,0.0339,0.0347,0.0348,0.0348,0.0346,0.0348,0.0348,0.0348,0.0357,0.0357,0.0358,0,0,0,0,0,0.0313,0.0322,0.0322,0.0324,0.0331,0.0332,0.0332,0.0333,0.0334,0.0336,0.034,0.0339,0.0346,0.0348,0.0349,0.0349,0.0348,0.0348,0.0348,0.0357,0.0357,0.0358,0,0,0,0,0,0,0.0314,0.0323,0.0324,0.0335,0.0334,0.0333,0.0337,0.0335,0.0339,0.0342,0.0342,0.0343,0.0349,0.0347,0.0349,0.0347,0.0345,0.0345,0.0351,0.0352,0.0352,0.0356,0.0346,0,0,0,0,0,0.0317,0.0329,0.033,0.0339,0.034,0.0338,0.034,0.0339,0.0341,0.0343,0.0345,0.0346,0.0347,0.0349,0.035,0.0353,0.0337,0.0351,0.0351,0.0352,0.0354,0.0328,0.0326,0.0347,0.0347,0.0347,0,0,0.032,0.0327,0.0333,0.034,0.0341,0.0346,0.034,0.0344,0.0348,0.0344,0.0354,0.035,0.0348,0.0351,0.0352,0.0351,0.0336,0.0351,0.0352,0.0354,0.0327,0.0325,0.0324,0.0346,0.0346,0.0346,0,0,0.0329,0.0337,0.0349,0.0351,0.0355,0.0354,0.0356,0.0356,0.0357,0.0363,0.0359,0.0355,0.0361,0.0354,0.0353,0.0354,0.0339,0.0354,0.0359,0.0334,0.0332,0.033,0.0301,0.0297,0.0353,0.0354,0.0354,0,0.0331,0.0348,0.035,0.0359,0.0366,0.0359,0.0368,0.0367,0.0369,0.0371,0.0369,0.0364,0.0361,0.0358,0.0357,0.0355,0.0338,0.036,0.0334,0.0332,0.033,0.0301,0.0296,0.0354,0.0354,0.0354,0.0354,0,0.0347,0.036,0.0367,0.038,0.0384,0.0392,0.0391,0.0393,0.0393,0.039,0.0388,0.0377,0.0374,0.0367,0.0365,0.0349,0.0341,0.0338,0.0334,0.0328,0.0298,0.0293,0.0355,0.0354,0.0354,0.0354,0,0,0.0354,0.0375,0.0379,0.0391,0.0398,0.0405,0.0411,0.0415,0.0424,0.0412,0.0415,0.0402,0.0392,0.0388,0.0376,0.0351,0.0317,0.0341,0.0339,0.0313,0.0257,0.0248,0.0241,0.031,0.031,0.0309,0.024,0,0.0367,0.0391,0.0398,0.0421,0.0433,0.0434,0.0444,0.0445,0.0444,0.0445,0.0419,0.0421,0.0401,0.04,0.037,0.0338,0.0305,0.0336,0.0266,0.0263,0.0257,0.0235,0.0307,0.0236,0.0235,0.0234,0.0233,0,0.0381,0.0398,0.0424,0.0449,0.0455,0.0468,0.0487,0.0495,0.0489,0.0487,0.0472,0.0455,0.0422,0.0404,0.0331,0.0353,0.0306,0.0271,0.0267,0.0253,0.0244,0.0243,0.0223,0.0224,0.0224,0.0225,0.0226,0,0.0389,0.0417,0.0443,0.0451,0.0475,0.049,0.0504,0.051,0.0526,0.0516,0.052,0.0476,0.0461,0.0394,0.0324,0.0327,0.0237,0.0232,0.0172,0.0171,0.0197,0.02,0.0169,0.0169,0.0169,0.0169,0.0169,0,0.0401,0.0422,0.0452,0.0466,0.0503,0.0512,0.0548,0.0553,0.0563,0.0583,0.0547,0.0542,0.0459,0.04,0.0327,0.0234,0.0236,0.0167,0.0151,0.0202,0.0206,0.0192,0.0196,0.0167,0.0167,0.0168,0.0168,0,0.0404,0.0423,0.0457,0.0492,0.051,0.0537,0.0585,0.0607,0.0613,0.0634,0.0633,0.0589,0.0515,0.0421,0.0312,0.0245,0.0154,0.0118,0.0176,0.0166,0.0102,0.0107,0.0041,0.004,0.004,0.0039,0.0038,0,0.0406,0.0426,0.0479,0.0508,0.0529,0.0574,0.0608,0.0632,0.0657,0.0663,0.067,0.061,0.0567,0.0402,0.0303,0.0152,0.0131,0.0076,0.0086,0.0097,0.0088,0.0094,0.01,0.0037,0.0037,0.0037,0.0037,0,0.0413,0.0437,0.0466,0.0526,0.0571,0.062,0.0668,0.0688,0.0715,0.0719,0.0694,0.0612,0.0526,0.0401,0.0283,0.0176,0.0109,0.0067,0.0068,0.0077,0.0091,0.0084,0.0091,0.0034,0.0034,0.0034,0.0035,0,0.0421,0.0443,0.049,0.0542,0.0599,0.065,0.0675,0.0702,0.0725,0.0727,0.0717,0.0625,0.0575,0.0414,0.0307,0.0199,0.0169,0.0128,0.0125,0.0127,0.0174,0.0206,0.0164,0,0,0,0,0,0.0427,0.0455,0.0503,0.0561,0.0617,0.0655,0.071,0.0729,0.0753,0.0737,0.0728,0.0646,0.0488,0.0424,0.0313,0.0287,0.0149,0.0153,0.01,0.0018,0.0022,0.0061,0,0,0,0,0,0,0.0431,0.0475,0.0499,0.0569,0.0612,0.0677,0.0714,0.0731,0.0722,0.0726,0.0645,0.061,0.046,0.0552,0.0309,0.0278,0.0226,0.0084,0.0081,0.0017,0.002,0.0022,0.0064,0,0,0,0,0]}]]